OBJECT G, 44885

Orbit data source: Space-Track

You're viewing an Uncataloged Satellite

Recently launched and/or uncataloged satellites may have evolving metadata. Metadata may include but not limited to: Owner, Maufacturer, Bus, Motor, and Mission.

OBJECT G, 44885 is a satellite in SSO that was launched on Fri, 20 Dec 2019 UTC via a CHANG ZHENG 4B launch vehicle from the Taiyaun Space Center, China (TSC). Unknown objects in Earth's orbit typically refer to objects detected orbiting the Earth but have not yet been identified or cataloged. These objects could be anything from previously untracked satellites, spent rocket stages, debris from satellite collisions, or even natural meteoroids temporarily captured by Earth's gravity.

Loading next visibility...
Identifier
44885, 2019-093G
Orbit
SSO
Country
Flag of TBDTBD
Related business
Flag of BRFederal University of Santa Catarina (BR)
Manufacturer
UFSC
Mission
Operational Amateur Technology
Bus & Motor
CUBESAT 1U, Unknown motor
Mass
1 kg wet, 1 kg dry
Launch date (UTC)
2019-12-20 (6 years ago)
Launch vehicle
CHANG ZHENG 4B
Launch site
Taiyaun Space Center, China (TSC)
Object type
Unknown
Shape & HBR
Box, Unknown HBR
Radar Cross Section
0.015 m², Small (<0.1 m²)

Expand to show TLE details & history
Last TLE update: 14 hours ago

TLE from 14 hours ago
0 OBJECT G
1 44885U 19093G   25261.28095300  .00005015  00000-0  41266-3 0  9997
2 44885  97.8168 349.1430 0008564 227.2291 132.8212 14.99542318311833
Epoch: 2025-09-18T06:44Z
TLE epoch observation values (Epoch: 2025-09-18T06:44:34.339Z)
Latitude
-0.00002°
Longitude
-109.44488°
Altitude
575.407 km
Speed
7.571 km/s
True Right ascension
23h 16m 34s
True Declination
0° 00' 00"
Sunlit
Object was in full shadow at epoch
Visualization orbit readout
Latitude
Unknown
Longitude
Unknown
Altitude
Unknown
Speed
Unknown
Apparent Right ascension
Unknown
Apparent Declination
Unknown
Sunlit
N/A
Visualization observer readout
Local Sidereal Time
13:43:36
Azimuth
Unknown
Elevation
Unknown
Doppler factor
Unknown
Orbital elements
Apogee altitude
571.267 km
Perigee altitude
559.374 km
Semi-major axis
6,943.457 km
Eccentricity
0.00086
Inclination
97.8168°
RAAN
349.143°
Arg. of periapsis
227.2291°
True anomaly
132.89313°
Mean anomaly
132.8212°
Eccentric anomaly
132.85717°
Mean motion
3.75128 °/min
Orbital period
95.97 mins
BSTAR
0.00041266
Loading maneuver chart data...
Computing Atmospheric mass density...
Loading historical data...
Loading historical data...
Loading historical data...
Loading historical data...
Loading historical data...
Loading historical data...
Loading historical data...

Documentation

Showing up to 5 results
|